This demonstration page uses our WeatherBlox Daily Observations layout. Learn more.

41.55636, -103.73856

Hourly Observations for January 7, 2020

Temp ( °F °C ) Dew Point ( °F °C ) Humidity (%) Winds ( mph kmh ) Pressure ( in mb ) Visibility ( mi km ) Precip ( " mm )
12:58 am 00:58 Clear 31 -0.4 15 -9.5 51 51 WNW 21 33 30.29 1026 10 16.0934 0 0
1:58 am 01:58 Clear 26 -3.4 15 -9.5 63 63 W 10 17 30.33 1027 10 16.0934 0 0
2:58 am 02:58 Clear 27 -2.6 15 -9.7 59 59 W 10 17 30.32 1027 10 16.0934 0 0
3:58 am 03:58 Clear 26 -3.1 14 -9.9 60 60 W 6 9 30.26 1025 10 16.0934 0 0
4:58 am 04:58 Clear 31 -0.7 15 -9.5 52 52 W 8 13 30.23 1024 10 16.0934 0 0
5:58 am 05:58 Clear 26 -3.5 15 -9.4 64 64 SW 12 19 30.22 1023 10 16.0934 0 0
6:58 am 06:58 Mostly Cloudy 28 -2.1 15 -9.4 58 58 SW 9 15 30.19 1022 10 16.0934 0 0
7:58 am 07:58 Clear 38 3.2 19 -7.4 46 46 WNW 23 37 30.13 1020 10 16.0934 0 0
8:58 am 08:58 Clear 38 3.4 18 -7.8 44 44 WNW 25 41 30.15 1021 10 16.0934 0 0
9:58 am 09:58 Clear 37 2.5 19 -7.3 49 49 WNW 20 31 30.15 1021 10 16.0934 0 0
10:58 am 10:58 Clear 36 2.3 19 -7.4 49 49 WNW 20 31 30.16 1021 10 16.0934 0 0
11:58 am 11:58 Clear 35 1.9 19 -7 52 52 WNW 17 28 30.18 1022 10 16.0934 0 0
12:58 pm 12:58 Clear 35 1.7 19 -7 53 53 WNW 16 26 30.19 1023 10 16.0934 0 0
1:58 pm 13:58 Clear 35 1.6 20 -6.9 54 54 WNW 16 26 30.24 1024 10 16.0934 0 0
2:58 pm 14:58 Sunny 36 2.3 20 -6.5 53 53 NW 17 28 30.24 1024 10 16.0934 0 0
3:58 pm 15:58 Sunny 40 4.7 21 -6 46 46 NW 21 33 30.24 1024 10 16.0934 0 0
4:58 pm 16:58 Sunny 44 6.9 21 -6 40 40 NW 25 41 30.21 1023 10 16.0934 0 0
5:58 pm 17:58 Sunny 47 8.4 20 -6.7 34 34 WNW 23 37 30.21 1023 10 16.0934 0 0
6:58 pm 18:58 Sunny 49 9.3 20 -6.4 33 33 NW 28 44 30.17 1022 10 16.0934 0 0
7:58 pm 19:58 Sunny 51 10.5 20 -6.6 30 30 WNW 20 31 30.11 1020 10 16.0934 0 0
8:58 pm 20:58 Sunny 51 10.7 20 -6.5 30 30 WNW 18 30 30.11 1020 10 16.0934 0 0
9:58 pm 21:58 Sunny 47 8.6 22 -5.6 36 36 NW 18 30 30.12 1020 10 16.0934 0 0
10:58 pm 22:58 Sunny 44 6.4 24 -4.6 46 46 NW 10 17 30.13 1020 10 16.0934 0 0
11:58 pm 23:58 Clear 40 4.5 23 -5.2 50 50 W 13 20 30.13 1020 10 16.0934 0 0

Powered by AerisWeather